Location: Unspecified
(0.0000°N, 0.0000°E)
Time: 19:02:05
(UTC+00:00)

Vanguard 1 - Pass Details

Date: 26 November 2019
Orbit: 652 x 3832 km, 34.3° (Epoch: 09 December)

Event Time Altitude Azimuth Distance (km) Brightness Sun altitude
Rises 07:25:42 0° 260° (W) 7,903 14.2 22.9°
Reaches altitude 10° 07:32:49 10° 270° (W) 6,636 13.8 24.6°
Maximum altitude 07:48:45 28° 321° (NW) 4,216 13.0 28.2°
Drops below altitude 10° 07:59:32 10° 16° (NNE) 4,410 13.4 30.7°
Sets 08:03:07 0° 29° (NNE) 4,975 13.7 31.5°
